Location: Newark
(52.3500°N, 175.9667°E)
Time: 23:32:29
(UTC+00:00)

N. Korean satellite - Pass Details

Date: 28 February 2021
Orbit: 453 x 499 km, 97.2° (Epoch: 12 April)

Event Time Altitude Azimuth Distance (km) Brightness Sun altitude
Rises 17:43:52 0° 15° (NNE) 2,509 10.4 -12.9°
Reaches altitude 10° 17:45:55 10° 18° (NNE) 1,635 9.5 -12.6°
Maximum altitude 17:49:25 68° 102° (ESE) 514 6.9 -12.0°
Drops below altitude 10° 17:52:57 10° 186° (S) 1,647 9.2 -11.5°
Sets 17:55:01 0° 189° (S) 2,529 10.1 -11.2°
